Orbital elements:
    C/2009 F6 (Yi-SWAN)
Epoch 2009 May 9.0 TT = JDT 2454960.5
T 2009 May 7.43415 TT                                   MPC
q   1.2741595            (2000.0)            P               Q
z  +0.0019627      Peri.  129.77283     -0.04042577     -0.16268431
 +/-0.0000156      Node   278.67904     +0.28320075     +0.94433007
e   0.9974993      Incl.   85.76477     +0.95820827     -0.28596248
Residuals in seconds of arc
090406 493  0.3+  0.6-    090410 510  0.2+  0.5-    090424 A27  0.1+  0.2-
090406 493  0.4+  0.7-    090410 510  0.1-  1.0-    090424 A27  0.4+  0.6-
090406 493  0.3+  1.0-    090410 A71  0.1+  0.3-    090424 A27  1.2-  0.2+
090406 493  0.1-  0.8-    090410 A71  0.3+  0.6+    090424 B73  0.3+  0.0
090406 493  0.4+  0.7-    090410 B73  0.1-  0.0     090425 235  0.2+  0.1-
090406 H06  0.5-  0.0     090410 A71  0.1+  1.0+    090426 349  0.2-  0.7+
090406 H06  0.3+  1.5+    090410 510  0.3-  0.8-    090426 349  0.5-  0.2+
090406 H06  1.0-  0.5+    090411 987  1.3+  0.6-    090426 349  0.1-  0.6+
090406 H06  1.7-  0.1+    090411 987  0.5+  0.8-    090427 585  0.8+  0.8-
090406 H06  0.6+  0.6-    090411 987  2.0+  0.5-    090427 585  0.7-  1.8+
090406 114  0.3-  0.4-    090412 J40  0.9+  0.1+    090427 585 (0.5+  2.8+)
090406 114  0.2-  0.1-    090412 J40  1.1+  0.0     090427 585  0.9+  0.4+
090406 114  0.1-  0.4-    090412 J40  1.6+  0.1-    090427 585  0.7+  0.7+
090406 114  0.1+  0.2-    090412 367  0.5-  0.6+    090427 585  0.4+  0.3-
090406 114  0.2-  0.3-    090412 367  0.6-  0.3+    090427 585 (0.0   2.7+)
090406 114  0.1+  0.1-    090412 367  0.9-  0.5-    090427 585  0.3-  0.3+
090406 114  0.1-  0.2-    090412 367  0.7-  0.5+    090427 585  0.3+  0.1+
090406 114  0.0   0.1-    090412 H06  0.2-  0.9-    090427 585  0.6-  0.7+
090406 114  0.1-  0.1-    090412 H06  0.3-  0.2+    090427 585  0.6+  0.8-
090406 114  0.2-  0.1-    090412 204  0.2-  0.3-    090427 585  0.4-  0.0
090406 235  0.5-  0.1+    090412 204  0.5-  0.7-    090427 585  0.4-  0.2+
090406 900  0.2-  0.1+    090412 204  0.1+  0.8-    090428 900  1.0-  0.6+
090406 235  0.7-  0.4+    090412 987  1.0+  0.3-    090428 900  1.1-  0.0
090406 900  0.1-  0.2+    090412 987  1.3+  0.2+    090428 585 (2.0-  2.8+)
090406 595  0.0   0.3-    090412 987 (2.0+  0.4-)   090428 585  1.3-  0.5-
090406 595  0.4-  0.0     090412 945  1.1+  0.5+    090428 585  0.0   1.0+
090406 213  0.6+  0.5-    090412 945  1.2+  1.3-    090428 585  1.9-  1.3+
090406 213  0.0   0.3-    090412 945  0.3-  0.3+    090428 585 (1.8-  2.2+)
090406 595  0.9-  0.5+    090412 945  1.5+  0.5-    090428 585 (0.7-  2.6+)
090406 213  0.0   0.1+    090413 114  0.3+  0.1-    090429 367  0.0   1.2+
090406 587  0.3+  0.3-    090413 114  0.6+  0.2-    090429 367  0.7-  0.9+
090406 587  0.4+  1.0-    090413 114  0.3+  0.1-    090429 367  0.1+  1.6+
090406 595  0.7-  0.3-    090413 114  0.2+  0.0     090501 A27  0.3-  0.0
090406 587  0.3+  0.4-    090413 114  0.3+  0.1-    090501 A27  0.0   0.8+
090406 587  0.5+  0.4+    090413 204  0.3+  0.8-    090502 349  0.6+  1.3+
090406 204  0.2+  0.4-    090413 204  0.2-  0.5-    090502 349  0.4+  1.4+
090406 204  0.0   0.6-    090413 204  0.3+  0.9-    090502 349  0.0   1.9+
090406 204  0.0   0.3-    090413 B82  0.4+  0.8-    090502 A27  1.2+  0.7+
090406 B42  1.2+  0.9+    090413 B82  0.2+  0.7-    090502 A27  0.2+  0.8+
090406 B42  1.4+  1.0-    090413 B82  0.3+  0.6-    090502 A27  0.5-  0.4+
090406 B42  1.3+  0.3+    090413 B82  0.2+  0.9-    090502 A27  0.5-  0.9+
090406 J41  0.2+  0.9-    090414 213  0.1+  0.2-    090507 235  0.1-  0.5+
090406 J41  0.5+  0.6-    090414 213  0.3+  0.1+    090508 B82  0.1+  0.3+
090406 J41  0.1-  0.5-    090414 213  0.5+  0.2-    090508 B82  0.5-  0.5-
090406 J41  0.2+  0.5+    090414 B82  0.7+  0.5-    090508 B82  0.4-  0.5+
090407 114  0.3-  0.5-    090414 B82  1.0+  0.1-    090508 B82  0.1-  0.0
090407 114  0.1+  0.6-    090414 B82  0.5+  0.5-    090509 349  0.9-  0.9+
090407 114  0.2-  0.7-    090414 A32  1.2-  1.4+    090509 349  0.5-  1.3+
090407 114  0.5+  1.3-    090414 A32  0.6-  0.1-    090510 367  0.1+  0.9+
090407 A17  0.0   0.4-    090414 A32  1.0-  1.4+    090510 367  0.2+  1.3+
090407 114  0.1-  0.8-    090414 585  0.4-  1.1-    090510 367  0.1+  1.2+
090407 114  0.1-  0.7-    090414 585  0.4-  0.9-    090511 987  1.3+  0.7-
090407 114  0.3-  0.5-    090414 585  0.3+  0.7+    090511 987  0.4+  1.7-
090407 114  0.0   0.6-    090415 585  0.2-  0.7-    090511 987  0.3+  0.3-
090407 114  0.1-  0.8-    090415 585  0.5+  0.7-    090511 987  0.4+  0.1-
090407 A17  0.0   0.6-    090415 585  0.4+  0.9-    090512 A49  0.4-  1.3-
090407 A17  0.4-  0.4-    090415 585  0.3+  1.0-    090512 A49  0.2-  0.3+
090407 A71  0.3+  0.1+    090415 585  0.2-  0.7-    090512 A49  0.1+  0.2-
090407 A17  0.4+  0.6-    090415 585  0.1-  0.3-    090512 A49  0.3-  1.4-
090407 A71  0.1-  0.5+    090415 349  0.3+  0.6+    090512 A49  0.7+  1.5-
090407 A71  0.3+  0.2+    090415 349  0.3-  1.1+    090512 A49  0.4-  1.1-
090407 A71  0.6-  0.1+    090415 B82  0.4+  0.5+    090512 A49  0.1+  0.3-
090407 367  0.7-  0.1+    090415 B82  0.3+  0.4-    090512 A49  0.2+  0.3+
090407 367  0.7+  0.8+    090415 B82  0.1-  1.3+    090513 D92  0.3+  0.3-
090407 367  0.2-  0.5+    090415 510  0.8+  0.1+    090513 D92  0.3+  0.5+
090407 H06  1.5+  0.6-    090415 510  0.4+  0.5+    090513 A71  0.0   1.2+
090407 H06  0.2-  0.5+    090415 510  0.5+  0.4+    090513 A71  0.8+  1.5+
090407 H06  0.2-  0.5+    090416 A32  0.8-  1.2+    090513 A71  0.3-  0.4+
090407 H06  0.1+  0.4-    090416 A32  0.4+  0.7+    090513 A71  0.8+  0.4-
090407 H06  0.2-  0.3+    090416 A32  0.3-  0.0     090513 A71  1.1+  1.7+
090407 349  0.3-  0.0     090416 A32  0.1-  0.3+    090513 A71  0.1+  0.1-
090407 349  0.9-  0.3-    090416 A32  0.3-  0.1-    090513 A32  1.2+  0.3+
090407 349  0.8-  0.1-    090416 945  1.4+  0.8+    090513 A32  0.1+  1.9+
090407 D93 (1.2-  2.3+)   090416 945  0.5+  0.5-    090513 A32  0.3+  1.4+
090407 349  0.5-  0.3+    090416 945  1.0+  0.4+    090513 A32  0.0   0.8+
090407 D93 (0.1+  2.9+)   090416 945  0.4+  0.2-    090514 900 (0.1+  3.2+)
090407 D93  0.5-  0.2+    090416 945  1.2+  0.3+    090514 900  0.5+  1.0+
090407 D93  0.1-  0.6+    090417 367  0.3-  0.4+    090514 585 (2.7+  3.3+)
090407 D93  0.1+  0.9-    090417 367  0.2-  0.2+    090514 585  1.1+  1.6-
090407 D93  0.8+  1.3-    090417 367  0.8-  0.3+    090514 585  0.6+  0.8+
090407 D93  0.2-  1.0-    090417 A32  0.8-  0.7+    090514 585 (2.7+  1.8+)
090407 900  0.2-  0.2+    090417 A32  0.9-  0.6+    090514 585  0.7+  0.7+
090407 900  0.5-  0.2+    090417 A32  0.1-  0.3-    090514 585 (1.3+  2.4-)
090407 235  0.2-  0.4+    090417 A32  0.6-  0.5+    090514 585 (1.0+  4.5-)
090408 900  0.3-  0.6+    090418 A32  1.1-  1.0+    090514 585  1.8+  1.6-
090408 900  0.3-  0.4+    090418 A32  1.1-  1.1+    090514 585  1.1+  1.6-
090408 D81  0.5-  1.3+    090418 A32  0.2-  0.1-    090516 213  0.2+  1.1-
090408 D81  0.4-  1.6+    090418 A32  0.5-  0.0     090516 A71 (0.7-  2.2+)
090408 D81  0.2-  1.3+    090418 A32  0.3-  0.3+    090516 A71  0.3+  0.1-
090408 D81  0.0   1.1+    090418 J26  0.1+  1.2-    090516 A71  0.1-  0.5+
090408 585  0.3+  0.3-    090418 J26  0.3-  1.1-    090516 213  0.4+  1.2+
090408 585  0.3-  0.3+    090418 J26 (2.1-  1.0-)   090516 213  0.6+  1.5+
090408 585  0.2+  0.6-    090419 D81 (2.1-  2.1+)   090518 B82  0.0   0.3-
090408 585  0.4+  0.7-    090419 D81  0.2+  1.6+    090518 B82  0.1-  0.3-
090408 585  0.5+  0.8-    090419 A32  0.3-  0.5+    090518 B82  0.1+  0.5-
090408 585  0.2-  0.4-    090419 A32  0.3+  0.2+    090518 585  0.4-  0.8-
090408 585  1.0-  0.4+    090419 A32  0.5-  0.6+    090518 585  0.1+  1.0+
090408 A91  0.4+  0.7+    090419 A32  0.1+  0.1-    090518 585  0.1-  0.1+
090408 585  0.9+  0.8-    090420 A32  0.0   0.3-    090518 585  0.1-  0.0
090408 A91  0.1+  1.0+    090420 A32  0.1-  0.0     090518 585  0.4-  0.2-
090408 585  0.7+  1.4-    090420 A32  0.6-  1.1+    090518 585  0.4-  0.6-
090408 A91  0.1+  1.1+    090420 A32  0.9-  1.2+    090518 585  0.9-  0.4-
090408 585  0.9+  0.5-    090420 A32  0.6-  1.0+    090518 585  0.4-  0.3+
090408 585  0.3+  0.6-    090421 A32  0.2-  0.6+    090518 585  0.1+  0.4+
090408 585  0.1+  0.3+    090421 A32  0.8+  0.5-    090518 585  0.3-  1.5-
090408 585  0.7+  0.2+    090421 A32  0.4-  0.9+    090519 B82  0.6+  0.2-
090408 585  0.2+  1.1-    090421 510  0.3-  0.9-    090519 B82  0.9-  0.8-
090408 585  0.4+  0.8-    090421 A32  0.5-  0.6+    090519 B82  0.5-  0.8+
090408 585  0.4+  0.2-    090421 510  0.0   0.8-    090520 D92  0.4-  0.0
090408 585  0.1+  1.0+    090421 A32  0.1-  0.5+    090520 D92  0.0   0.2-
090408 585  0.1+  1.1-    090421 585  0.2-  0.8-    090521 585  0.2-  0.4-
090408 585  0.7+  0.4-    090421 585  0.2-  0.6-    090521 585  0.2-  0.3+
090408 585  0.5+  0.6+    090421 510  0.3+  0.4-    090521 585  0.2+  0.4+
090409 D92  0.7-  0.2+    090421 585  0.0   1.1-    090521 585  1.2-  0.1+
090409 D92  0.1-  0.4-    090421 585  0.2+  0.9-    090521 585  0.9-  0.1+
090409 D92  0.3+  0.6+    090421 585  0.1+  0.9-    090521 585  0.4+  1.0+
090409 D93  1.3+  0.9+    090421 585  0.0   1.1-    090521 585  0.6-  1.2+
090409 D93  0.3-  0.0     090421 585  0.1-  0.8-    090521 585  0.6-  0.0
090409 D93  1.1-  1.7+    090421 585  0.1-  0.9-    090521 585  0.9-  1.1+
090409 349  0.1+  0.1+    090421 585  0.2-  1.3-    090521 585  0.5-  1.4-
090409 D93  1.3-  1.1+    090421 585  0.1-  0.5-    090521 585  0.7-  0.2-
090409 349  0.1-  0.2+    090421 585  0.2+  1.4-    090521 585  1.1-  0.1-
090409 D93 (1.6-  2.3+)   090421 585  0.5-  1.0-    090521 585 (0.3-  2.3-)
090409 349  0.0   0.2+    090421 585  0.1+  0.6-    090522 B82  0.1+  0.9-
090409 D93  1.3-  1.9+    090421 585  0.0   1.5-    090522 B82  0.5-  2.0-
090409 349  0.2+  0.4+    090422 349  0.3-  0.7+    090522 B82  0.5+  0.1+
090409 235  0.5-  0.2+    090422 349  0.4-  1.1+    090524 B82  0.5-  0.0
090409 B82  0.7+  0.7-    090422 349  0.1-  0.6+    090524 B82  0.0   0.9-
090409 B82  0.6+  0.7-    090422 130  0.2-  0.1-    090524 B82  0.5+  0.5+
090409 B82  0.1-  0.5-    090422 130  0.0   0.0     090525 A49  1.3+  0.6-
090409 B82  0.4+  0.6-    090422 130  0.6+  0.2-    090525 A49  0.9-  1.5-
090409 B82  0.9+  0.3-    090422 130  0.3-  0.2-    090525 A49  0.2+  0.3+
090409 B82  0.5+  0.0     090422 B82  0.5+  0.3-    090529 A49  0.3+  0.0
090409 510  0.4-  0.4+    090422 B82  0.1+  0.8-    090529 A49  0.5+  1.4-
090409 510  0.0   0.6+    090422 B82  0.3+  0.6-    090529 A49  0.5+  0.6-
090409 510  0.0   0.1-    090423 A32  0.1-  0.1+    090529 A49  1.7+  1.1+
090410 900 (0.4-  3.8+)   090423 A32  0.3+  0.4+    090529 A49  0.3+  1.2+
090410 900  0.6-  1.1+    090423 A32  0.4-  0.6+    090826 349  1.2-  0.2-
090410 900  1.0-  0.8+    090423 A32  0.4-  1.4+    090826 349  0.4-  0.9-
090410 900  0.0   0.3+    090423 A32  0.6-  0.6+    090828 349 (2.0-  2.2-)
090410 349  0.2+  0.4+    090424 215  0.3+  0.4+    090828 349  1.4-  1.4-
090410 349  0.2+  0.2+    090424 215  0.4+  0.3+    090909 349  1.6-  0.2-
090410 349  0.3+  0.2+    090424 215  0.8+  0.4-    090909 349  0.8-  0.3+
090410 349  0.1+  0.1+    090424 B73  1.0-  0.9+

